This demonstration page uses our WeatherBlox Daily Observations layout. Learn more.

Left ArrowRight Arrow

39.95238, -75.16362

Hourly Observations for April 12, 2015

Temp ( °F °C ) Dew Point ( °F °C ) Humidity (%) Winds ( mph kmh ) Pressure ( in mb ) Visibility ( mi km ) Precip ( " mm )
12:54 am 00:54 Clear 49 9.4 27 -2.8 43 43 N 8 13 30.25 1024 10 16 0.00 0.00
1:54 am 01:54 Clear 49 9.4 27 -2.8 43 43 NW 5 7 30.26 1025 10 16 0.00 0.00
2:54 am 02:54 Clear 46 7.8 28 -2.2 50 50 NNW 5 7 30.26 1025 10 16 0.00 0.00
3:54 am 03:54 Clear 43 6.1 28 -2.2 56 56 Calm 30.27 1025 10 16 0.00 0.00
4:54 am 04:54 Clear 41 5 29 -1.7 62 62 WSW 5 7 30.29 1026 10 16 0.00 0.00
5:54 am 05:54 Clear 40 4.4 29 -1.7 65 65 WSW 3 6 30.31 1027 10 16 0.00 0.00
6:54 am 06:54 Sunny 42 5.6 29 -1.7 60 60 Calm 30.33 1027 10 16 0.00 0.00
7:54 am 07:54 Sunny 45 7.2 31 -0.6 58 58 SSW 6 9 30.36 1028 10 16 0.00 0.00
8:54 am 08:54 Sunny 49 9.4 32 0 52 52 SW 6 9 30.37 1029 10 16 0.00 0.00
9:54 am 09:54 Sunny 53 11.7 27 -2.8 37 37 WSW 5 7 30.37 1029 10 16 0.00 0.00
10:54 am 10:54 Mostly Sunny 56 13.3 27 -2.8 33 33 S 5 7 30.36 1028 10 16 0.00 0.00
11:54 am 11:54 Mostly Sunny 58 14.4 26 -3.3 29 29 S 7 11 30.35 1028 10 16 0.00 0.00
12:54 pm 12:54 Mostly Sunny 60 15.6 24 -4.4 25 25 SSW 6 9 30.34 1027 10 16 0.00 0.00
1:54 pm 13:54 Mostly Sunny 63 17.2 26 -3.3 25 25 S 6 9 30.32 1027 10 16 0.00 0.00
2:54 pm 14:54 Mostly Sunny 65 18.3 24 -4.4 21 21 SSW 3 6 30.29 1026 10 16 0.00 0.00
3:54 pm 15:54 Partly Cloudy 66 18.9 23 -5 19 19 SW 12 19 30.28 1025 10 16 0.00 0.00
4:54 pm 16:54 Partly Cloudy 67 19.4 25 -3.9 20 20 SSW 10 17 30.27 1025 10 16 0.00 0.00
5:54 pm 17:54 Partly Cloudy 66 18.9 22 -5.6 19 19 SSW 13 20 30.28 1025 10 16 0.00 0.00
6:54 pm 18:54 Partly Cloudy 63 17.2 26 -3.3 25 25 SSW 9 15 30.28 1026 10 16 0.00 0.00
7:54 pm 19:54 Partly Cloudy 57 13.9 33 0.6 41 41 S 10 17 30.29 1026 10 16 0.00 0.00
8:54 pm 20:54 Partly Cloudy 55 12.8 33 0.6 44 44 S 10 17 30.32 1027 10 16 0.00 0.00
9:54 pm 21:54 Partly Cloudy 53 11.7 31 -0.6 43 43 SW 5 7 30.34 1027 10 16 0.00 0.00
10:06 pm 22:06 Partly Cloudy 52 11.1 31 -0.6 45 45 SSW 3 6 30.33 1027 10 16 0.00 0.00
10:54 pm 22:54 Clear 52 11.1 32 0 47 47 SW 5 7 30.34 1027 10 16 0.00 0.00
11:54 pm 23:54 Clear 50 10 34 1.1 54 54 SSW 6 9 30.34 1027 10 16 0.00 0.00

Powered by AerisWeather